Flag for U.S.A. Weather past 2 weeks in Cape Coral, Florida, U.S.A.

Now
64 °F

Clear.


Feels Like: 64 °F
Forecast: 62 / 80 °F
Wind: 10 mph from Northeast

Location: Page Field

Current Time: Oct 25, 2014 at 8:18:29 AM

Latest Report: Oct 25, 2014 at 7:53 AM


Visibility: 10 mi

Pressure: 29.96 "Hg

Humidity: 78%

Dew point: 57 °F

Location of Cape CoralLocation

Historic Weather in Cape Coral — Graph

°F

Cape Coral temperature yesterday

Maximum temperature yesterday: 83 °F (at 1:53 PM)
Minimum temperature yesterday: 63 °F (at 7:53 AM)
Average temperature yesterday: 72 °F

Past Weeks' High & Low Weather Summary

 TemperatureHumidityPressure
High91 °F (Oct 11, 3:53 PM)97% (Oct 12, 7:53 AM)30.07 "Hg (Oct 12, 7:53 AM)
Low62 °F (Oct 17, 7:53 AM)41% (Oct 17, 3:53 PM)29.84 "Hg (Oct 24, 4:53 PM)
Average76 °F75%29.96 "Hg
* Reported Oct 10 6:53 AM — Oct 25 6:53 AM, Cape Coral, Weather by CustomWeather, © 2014

Note: Actual official high and low records may vary slightly from our data, if they occured in-between our weather recording intervals... More about our weather records

Advertising

Cape Coral weather history for previous 24 hours

 ConditionsComfort  
Time TempWeatherWind HumidityBarometerVisibility
6:53 AM
Oct 25
64 °FClear.10 mph78%29.95 "Hg10 mi
5:53 AM64 °FClear.9 mph81%29.93 "Hg10 mi
4:53 AM64 °FClear.8 mph81%29.91 "Hg10 mi
3:53 AM65 °FClear.9 mph78%29.90 "Hg10 mi
2:53 AM67 °FClear.10 mph71%29.92 "Hg10 mi
1:53 AM66 °FClear.6 mph75%29.93 "Hg10 mi
12:53 AM67 °FClear.8 mph76%29.93 "Hg10 mi
11:53 PM
Oct 24
68 °FClear.9 mph73%29.94 "Hg10 mi
10:53 PM69 °FClear.7 mph70%29.93 "Hg10 mi
9:53 PM71 °FClear.8 mph68%29.91 "Hg10 mi
8:53 PM74 °FClear.10 mph62%29.89 "Hg10 mi
7:53 PM75 °FClear.8 mph58%29.87 "Hg10 mi
6:53 PM78 °FSunny.9 mph54%29.85 "Hg10 mi
5:53 PM83 °FScattered clouds.9 mph46%29.84 "Hg10 mi
4:53 PM82 °FPartly sunny.12 mph49%29.84 "Hg10 mi
3:53 PM83 °FPassing clouds.7 mph53%29.85 "Hg10 mi
2:53 PM82 °FOvercast.13 mph55%29.86 "Hg10 mi
1:53 PM83 °FSunny.9 mph53%29.88 "Hg10 mi
12:53 PM81 °FPartly sunny.14 mph56%29.92 "Hg10 mi
11:53 AM79 °FOvercast.16 mph58%29.94 "Hg10 mi
10:53 AM78 °FPartly sunny.14 mph58%29.94 "Hg10 mi
9:53 AM69 °FSunny.14 mph76%29.94 "Hg10 mi
8:53 AM66 °FSunny.12 mph81%29.93 "Hg10 mi
Weather by CustomWeather, © 2014

See weather overviewHow to use our weather pages